[[{"header":{"parameterUnit":"m.s-1","parameterCategory":1,"la1":30.2991,"la2":30.254,"lo1":-89.0895,"lo2":-89.0444,"dy":0.0017,"dx":0.0017,"nx":28,"ny":28,"refTime":"2025-05-19T03:00:00:Z","depth":0,"parameterNumber":2,"parameterNumberName":"U-component_of_WINDS"},"data":[0,0,0,0,0,0,0,0,0,0,0,0,0,0,0,0,0,0,0,0,0,0,0,0,0,0,0,0,0,0,0,0,0,0,0,0,0,0,0,0,0,0,0,0,0,0,0,0,0,0,0,0,0,0,0,0,0,0,-1.9743,-1.9743,0,-1.9779,-1.978,-1.978,-1.9778,-1.9777,-1.9777,-1.9776,-1.9816,-1.9817,-1.9819,0,0,0,0,0,0,0,0,0,0,0,0,0,-1.9674,-1.9675,-1.9743,-1.9743,-1.9744,-1.9779,-1.978,-1.978,-1.9778,-1.9777,-1.9777,-1.9776,-1.9815,-1.9817,-1.9819,0,0,0,0,0,0,0,0,0,0,0,0,0,-1.9707,-1.9676,-1.9743,-1.9747,-1.9748,-1.9779,-1.978,-1.9781,-1.9778,-1.9777,-1.9777,-1.9776,-1.9815,-1.9817,-1.9819,-1.985,0,0,-1.9826,-1.9827,0,0,0,0,0,0,0,0,-1.9705,-1.9709,-1.9746,-1.9747,-1.9748,-1.9773,-1.977,-1.9804,-1.9778,-1.9767,-1.9776,-1.9775,-1.9802,-1.9806,-1.9814,-1.9852,-1.9853,-1.9827,-1.9828,-1.9829,-1.983,0,0,0,0,0,0,0,-1.9703,-1.9708,-1.9757,-1.9746,-1.9747,-1.9748,-1.9752,-1.9776,-1.9789,-1.9768,-1.9768,-1.9772,-1.9803,-1.9812,-1.9815,-1.9854,-1.9826,-1.9829,-1.983,-1.9831,-1.9919,-1.992,0,0,0,0,0,0,-1.9699,-1.9706,-1.9756,-1.9759,-1.9724,-1.975,-1.9754,-1.9766,-1.9788,-1.9791,-1.9772,-1.9772,-1.9809,-1.9813,-1.9817,-1.9854,-1.9829,-1.9831,-1.9832,-1.9918,-1.9919,-1.992,0,0,0,0,0,0,-1.9698,-1.9704,-1.9755,-1.9732,-1.9739,-1.9752,-1.9765,-1.9767,-1.9776,-1.9792,-1.9794,-1.978,-1.9808,-1.9813,-1.9842,-1.9856,-1.9832,-1.9834,-1.9917,-1.9919,-1.992,-1.993,0,0,0,0,0,0,-1.9696,-1.9703,-1.9714,-1.9732,-1.974,-1.9778,-1.9766,-1.9768,-1.978,-1.9779,-1.9799,-1.9802,-1.9808,-1.9838,-1.9844,-1.9858,-1.9836,-1.9916,-1.9918,-1.9919,-1.9928,-1.9931,-1.9934,0,0,0,0,0,-1.9693,-1.9716,-1.9715,-1.9721,-1.9754,-1.9779,-1.9783,-1.9789,-1.9781,-1.9793,-1.9803,-1.9801,-1.9853,-1.9841,-1.9848,-1.9863,-1.9915,-1.9917,-1.9919,-1.9927,-1.9931,-1.9934,0,0,0,0,0,0,-1.9699,-1.9718,-1.9717,-1.9746,-1.9761,-1.9779,-1.9793,-1.9793,-1.9811,-1.9809,-1.9817,-1.9821,-1.985,-1.9859,-1.9845,-1.9894,-1.9883,-1.9887,-1.9887,-1.9891,-1.9893,-1.989,-1.9838,0,0,0,0,0,-1.9704,-1.9722,-1.9738,-1.9762,-1.9769,-1.978,-1.9791,-1.9795,-1.9811,-1.9817,-1.9829,-1.9846,-1.9866,-1.9879,-1.9898,-1.993,-1.9935,-1.9944,-1.9947,-1.9949,-1.9952,-1.997,-1.9975,-1.9927,-1.9927,-1.9927,0,0,-1.9714,-1.9726,-1.9737,-1.9763,-1.9775,-1.9795,-1.9785,-1.9806,-1.9821,-1.982,-1.9848,-1.9857,-1.9876,-1.9906,-1.992,-1.9915,-1.9966,-1.9952,-1.9953,-1.9955,-1.9973,-1.9977,-1.9981,-1.9929,-1.9929,-1.9928,0,0,-1.9741,-1.9752,-1.9774,-1.9786,-1.9804,-1.9811,-1.9816,-1.9834,-1.9841,-1.9868,-1.9868,-1.9887,-1.9921,-1.9934,-1.9946,-1.998,-1.9979,-1.9986,-2.0001,-2.0019,-2.0023,-2.0026,-2.0038,-2.0043,-1.9989,-1.9989,-1.9989,0,-1.9751,-1.978,-1.9785,-1.9806,-1.9818,-1.9818,-1.984,-1.9852,-1.9876,-1.9885,-1.9879,-1.9922,-1.9935,-1.9969,-1.9977,-1.9986,-1.9993,-1.9984,-2.0021,-2.0025,-2.0028,-2.004,-2.0045,-1.999,-1.999,-1.999,-1.999,0,-1.9791,-1.9811,-1.9827,-1.9849,-1.9863,-1.9884,-1.9894,-1.9907,-1.991,-1.9918,-1.9947,-1.9962,-1.9985,-1.9993,-1.9996,-2.0028,-2.0024,-2.002,-2.0009,-2.0033,-2.0045,-2.0049,-1.9991,-1.9991,-1.999,-1.999,0,0,-1.9823,-1.9849,-1.9854,-1.9865,-1.9885,-1.9901,-1.9923,-1.9945,-1.9957,-1.9973,-1.9993,-2.0022,-2.0019,-2.0032,-2.0036,-2.0052,-2.0078,-2.0046,-2.0046,-2.0051,-2.0115,-2.0118,-2.0123,-2.0078,-2.0079,-2.008,-2.0114,0,-1.9853,-1.9891,-1.9897,-1.9931,-1.995,-1.9951,-1.9971,-1.9986,-1.9995,-2.0013,-2.0023,-2.0044,-2.0037,-2.0045,-2.0061,-2.0072,-2.0091,-2.0069,-2.0097,-2.0098,-2.0092,-2.0129,-2.0132,-2.0164,-2.0118,-2.0119,-2.0119,0,-1.9893,-1.991,-1.9946,-1.9964,-1.9973,-1.999,-2.0011,-2.0028,-2.0046,-2.0051,-2.0066,-2.0069,-2.0093,-2.0081,-2.0115,-2.01,-2.0112,-2.0119,-2.0121,-2.0123,-2.011,-2.0133,-2.0174,-2.0178,-2.0127,-2.0126,-2.0125,0,-1.9913,-1.9945,-1.9971,-1.998,-2.0002,-2.0014,-2.0024,-2.0041,-2.0054,-2.0073,-2.0081,-2.0103,-2.0115,-2.0132,-2.0141,-2.0131,-2.0174,-2.0163,-2.018,-2.018,-2.0189,-2.0188,-2.0232,-2.0196,-2.0196,-2.0196,-2.0196,0,-1.9946,-1.9968,-1.998,-1.9996,-2.0021,-2.0028,-2.0053,-2.0063,-2.0078,-2.0097,-2.0099,-2.0117,-2.0128,-2.0147,-2.0155,-2.0182,-2.0187,-2.0193,-2.0195,-2.0193,-2.0192,-2.02,-2.0199,-2.0198,-2.0197,-2.0197,-2.0197,0,-1.9973,-1.9982,-2.001,-2.0028,-2.0033,-2.0051,-2.0067,-2.0083,-2.0092,-2.0116,-2.0122,-2.0136,-2.0159,-2.017,-2.0199,-2.0204,-2.0235,-2.0235,-2.0229,-2.0229,-2.0245,-2.0244,-2.0296,-2.0304,-2.0263,-2.0264,-2.0264,0,-1.9993,-2.001,-2.003,-2.0042,-2.0052,-2.0072,-2.0085,-2.0093,-2.0107,-2.0129,-2.0142,-2.0165,-2.0184,-2.0221,-2.0235,-2.0257,-2.0258,-2.0275,-2.0261,-2.0259,-2.0259,-2.0258,-2.026,-2.0277,-2.0278,-2.0278,-2.0278,0,-2.0029,-2.0032,-2.005,-2.007,-2.0086,-2.0102,-2.0118,-2.0129,-2.0139,-2.0155,-2.0178,-2.0193,-2.0222,-2.0245,-2.0269,-2.028,-2.0282,-2.0282,-2.0288,-2.0286,-2.0281,-2.0284,-2.0235,-2.0281,-2.0281,-2.0281,-2.028,-2.028,-2.0053,-2.0068,-2.0085,-2.0105,-2.0118,-2.0133,-2.0149,-2.016,-2.0179,-2.0203,-2.0207,-2.0232,-2.025,-2.0281,-2.0294,-2.0314,-2.031,-2.0318,-2.032,-2.0321,-2.0322,-2.0278,-2.0319,-2.0318,-2.0318,-2.0318,-2.0318,0,-2.0089,-2.0099,-2.0118,-2.014,-2.0157,-2.0156,-2.0174,-2.0188,-2.0209,-2.0226,-2.0244,-2.0272,-2.0294,-2.031,-2.0333,-2.0346,-2.0348,-2.0352,-2.0351,-2.0354,-2.0324,-2.0318,-2.0351,-2.0351,-2.0351,-2.0351,-2.0351,-2.0351,-2.0109,-2.0135,-2.0141,-2.0173,-2.0184,-2.0208,-2.0218,-2.0233,-2.0246,-2.0276,-2.0294,-2.0304,-2.0321,-2.0345,-2.0366,-2.037,-2.0379,-2.0384,-2.0388,-2.036,-2.0356,-2.0353,-2.0347,-2.0386,-2.0386,-2.0416,-2.0416,-2.0417]},{"header":{"parameterUnit":"m.s-1","parameterCategory":1,"la1":30.2991,"la2":30.254,"lo1":-89.0895,"lo2":-89.0444,"dy":0.0017,"dx":0.0017,"nx":28,"ny":28,"refTime":"2025-05-19T03:00:00:Z","depth":0,"parameterNumber":3,"parameterNumberName":"V-component_of_WINDS"},"data":[0,0,0,0,0,0,0,0,0,0,0,0,0,0,0,0,0,0,0,0,0,0,0,0,0,0,0,0,0,0,0,0,0,0,0,0,0,0,0,0,0,0,0,0,0,0,0,0,0,0,0,0,0,0,0,0,0,0,5.2275,5.2275,0,5.2343,5.2344,5.2344,5.233,5.2329,5.2328,5.2327,5.2392,5.2395,5.2397,0,0,0,0,0,0,0,0,0,0,0,0,0,5.2129,5.2132,5.2275,5.2276,5.2276,5.2343,5.2344,5.2345,5.233,5.2329,5.2327,5.2326,5.2391,5.2394,5.2398,0,0,0,0,0,0,0,0,0,0,0,0,0,5.2194,5.2132,5.2275,5.2277,5.2278,5.2343,5.2344,5.2345,5.2331,5.2329,5.2327,5.2325,5.239,5.2394,5.2398,5.2462,0,0,5.2411,5.2413,0,0,0,0,0,0,0,0,5.219,5.2199,5.2276,5.2277,5.2279,5.2326,5.2316,5.2384,5.2331,5.2311,5.2327,5.2324,5.2371,5.2377,5.2394,5.2465,5.2468,5.2412,5.2414,5.2416,5.2417,0,0,0,0,0,0,0,5.2186,5.2196,5.2301,5.2277,5.2279,5.2274,5.2281,5.2329,5.235,5.2312,5.2312,5.232,5.2371,5.2389,5.2395,5.2469,5.2412,5.2415,5.2418,5.242,5.2598,5.26,0,0,0,0,0,0,5.2181,5.2193,5.2299,5.2304,5.2229,5.2278,5.2286,5.2313,5.235,5.2354,5.2322,5.2319,5.2383,5.239,5.2397,5.2476,5.2416,5.242,5.2423,5.2596,5.2598,5.26,0,0,0,0,0,0,5.2178,5.219,5.2297,5.2248,5.2261,5.2283,5.2313,5.2315,5.2333,5.2357,5.236,5.2336,5.2382,5.2391,5.2447,5.2478,5.2422,5.2426,5.2593,5.2596,5.2599,5.2632,0,0,0,0,0,0,5.2174,5.2189,5.2215,5.2249,5.2264,5.2346,5.2314,5.2318,5.2341,5.2339,5.2372,5.2375,5.2381,5.244,5.2451,5.2483,5.243,5.259,5.2595,5.2598,5.2628,5.2636,5.2643,0,0,0,0,0,5.2168,5.222,5.2216,5.2229,5.2296,5.2348,5.2356,5.2363,5.2344,5.2369,5.2384,5.2374,5.2473,5.2446,5.2458,5.2491,5.2588,5.2593,5.2598,5.2625,5.2635,5.2642,0,0,0,0,0,0,5.2187,5.2224,5.222,5.2285,5.2314,5.2345,5.2377,5.2373,5.2406,5.2402,5.2408,5.2416,5.2473,5.2487,5.2457,5.2556,5.2528,5.2535,5.2544,5.2553,5.256,5.2555,5.2433,0,0,0,0,0,5.2199,5.2239,5.2269,5.2323,5.2338,5.2355,5.2378,5.2381,5.241,5.2422,5.2441,5.2469,5.2506,5.253,5.2566,5.2631,5.2638,5.2659,5.2666,5.2672,5.2678,5.2715,5.2725,5.2616,5.2616,5.2616,0,0,5.2223,5.2249,5.2273,5.2327,5.235,5.2391,5.2365,5.2409,5.2439,5.2428,5.2483,5.2498,5.2529,5.259,5.2617,5.2604,5.271,5.2678,5.2683,5.2686,5.2721,5.2731,5.274,5.2619,5.2619,5.2618,0,0,5.2289,5.2312,5.236,5.2384,5.2419,5.2431,5.2442,5.2476,5.2486,5.2541,5.2534,5.2569,5.2633,5.2656,5.2676,5.2752,5.2744,5.2763,5.28,5.2835,5.2844,5.2851,5.2879,5.2889,5.2769,5.2769,5.2769,0,5.2314,5.2377,5.2385,5.243,5.2454,5.2448,5.2497,5.2519,5.2563,5.2579,5.2564,5.2645,5.2665,5.2732,5.2751,5.2767,5.278,5.2759,5.2842,5.285,5.2857,5.2884,5.2894,5.2771,5.2771,5.2771,5.2771,0,5.2406,5.245,5.2484,5.253,5.2557,5.2604,5.2618,5.2645,5.2646,5.2659,5.2716,5.274,5.2781,5.2797,5.2798,5.2864,5.2855,5.2841,5.2812,5.287,5.2894,5.2905,5.2775,5.2774,5.2773,5.2773,0,0,5.2485,5.2536,5.2548,5.2569,5.2608,5.2641,5.2687,5.2729,5.2753,5.2784,5.2822,5.2877,5.2865,5.2888,5.2891,5.2922,5.2982,5.2904,5.2905,5.2918,5.3057,5.3068,5.3079,5.2977,5.2979,5.298,5.3055,0,5.2554,5.2638,5.2647,5.2721,5.2761,5.2757,5.2797,5.2825,5.2838,5.2873,5.2888,5.2927,5.2908,5.2922,5.2952,5.2968,5.301,5.2963,5.3012,5.3014,5.3005,5.3092,5.3103,5.3172,5.3064,5.3066,5.3067,0,5.2646,5.2682,5.2761,5.2796,5.2813,5.2849,5.2889,5.2923,5.2955,5.2962,5.2989,5.2988,5.3035,5.3006,5.307,5.3038,5.3059,5.307,5.3073,5.3078,5.3044,5.31,5.3195,5.3205,5.3082,5.3081,5.308,0,5.2697,5.2764,5.2821,5.2839,5.288,5.2906,5.2924,5.2954,5.2979,5.3014,5.303,5.3068,5.309,5.3119,5.3129,5.3106,5.3194,5.3164,5.3201,5.3201,5.3219,5.3218,5.3319,5.3232,5.3232,5.3232,5.3232,0,5.2774,5.2822,5.2844,5.2878,5.2932,5.2942,5.2995,5.3012,5.3039,5.3076,5.3074,5.3108,5.3119,5.3155,5.3163,5.3216,5.3225,5.3232,5.3234,5.3233,5.3232,5.3246,5.3242,5.3235,5.3234,5.3234,5.3233,0,5.2839,5.2855,5.2917,5.2952,5.2962,5.3,5.303,5.3063,5.3076,5.3123,5.3135,5.3156,5.3199,5.3211,5.3262,5.3267,5.333,5.3326,5.332,5.332,5.3356,5.3352,5.347,5.3486,5.3388,5.3389,5.339,0,5.2887,5.2924,5.2965,5.299,5.301,5.3051,5.3077,5.3088,5.3115,5.3155,5.3183,5.3226,5.3261,5.3329,5.3348,5.3387,5.3385,5.3424,5.3391,5.3389,5.3386,5.3384,5.3388,5.343,5.3431,5.3432,5.3432,0,5.2971,5.2978,5.3017,5.3059,5.309,5.3123,5.3155,5.3176,5.3191,5.3222,5.3267,5.3294,5.3347,5.3389,5.343,5.3447,5.3443,5.3443,5.3453,5.3453,5.3448,5.3452,5.3337,5.344,5.3439,5.3439,5.3438,5.3438,5.303,5.3063,5.3097,5.3141,5.3166,5.3196,5.323,5.3248,5.3286,5.3331,5.3335,5.3384,5.3415,5.3468,5.3488,5.3526,5.3514,5.3529,5.3533,5.3537,5.3541,5.3442,5.3533,5.3532,5.3532,5.3532,5.3532,0,5.3115,5.3137,5.3176,5.3222,5.3256,5.325,5.3286,5.3314,5.3357,5.3387,5.3422,5.3474,5.3515,5.3538,5.358,5.3605,5.3604,5.3616,5.3614,5.3618,5.3548,5.3535,5.3616,5.3616,5.3616,5.3616,5.3616,5.3616,5.3163,5.322,5.3231,5.33,5.3321,5.337,5.3391,5.3418,5.3443,5.3501,5.3536,5.3551,5.3579,5.3622,5.366,5.3665,5.3681,5.3694,5.3698,5.3632,5.3623,5.3615,5.3603,5.3697,5.3697,5.3765,5.3766,5.3766]}]]